Wind_Speed
10 11 12 13 14 15 15 16 16 15 17 19 23 22 22 21 21 20 20 20 18 16 13 12 25 29 30 30 31 31 30 27 28 29 18 18 19 18 16 16 15 14 14
11 12 11 11 13 14 16 17 17 17 17 19 20 22 23 23 23 22 22 22 19 19 18 17 16 22 30 32 32 21 27 27 27 24 19 16 17 15 14 15 13 13 13
10 11 9 12 16 19 16 15 17 18 18 18 19 21 24 24 24 23 24 25 24 23 22 22 20 23 28 31 30 24 27 22 28 25 22 19 15 15 13 13 12 12 11
11 10 12 13 17 19 19 17 15 17 20 21 20 20 22 25 26 25 26 25 25 29 26 28 22 23 24 27 29 33 27 28 28 27 25 21 19 16 15 13 13 12 12
12 12 12 14 16 14 14 15 16 16 16 18 21 21 22 24 26 25 22 23 27 28 23 27 32 25 24 24 29 31 35 33 30 28 22 23 20 17 17 16 14 14 14
17 15 14 15 12 13 13 16 15 16 18 20 20 22 23 26 26 25 23 22 26 25 27 20 26 24 23 23 25 30 33 34 30 29 24 24 22 20 19 18 17 17 15
21 21 19 17 16 17 16 18 19 18 19 20 22 23 25 27 29 26 24 23 24 22 26 30 23 22 14 21 25 28 31 31 29 24 27 25 23 22 19 17 17 15 15
25 26 22 21 20 19 18 20 19 20 21 22 23 24 26 28 30 30 24 25 29 25 25 21 22 23 18 17 22 26 31 30 30 28 29 26 24 21 20 18 16 14 15
28 28 28 24 24 23 22 21 21 20 20 25 25 25 27 28 31 29 27 24 28 27 24 20 24 25 24 19 18 25 29 32 28 26 30 26 25 22 19 19 16 16 16
30 30 31 28 26 25 25 23 22 21 23 24 25 26 28 28 29 30 26 25 28 26 24 22 21 25 20 18 22 24 29 34 29 25 28 27 27 23 21 19 16 17 17
31 31 33 32 29 27 25 25 25 23 25 26 27 26 29 29 28 27 26 24 26 26 24 22 18 23 21 19 20 24 30 31 32 25 29 26 26 23 20 19 18 18 17
32 34 35 32 31 29 26 25 27 24 26 26 29 28 31 28 28 24 26 25 24 24 24 21 21 17 19 19 16 23 29 30 31 28 26 26 26 23 20 20 18 18 17
38 36 34 33 31 29 27 27 28 27 28 27 30 31 31 28 26 22 22 26 27 23 22 20 20 18 22 20 19 22 26 29 27 24 29 24 24 22 19 18 20 19 18
45 41 37 35 34 30 30 28 28 27 28 29 31 31 29 29 26 24 22 24 27 24 20 21 22 21 22 25 17 17 24 28 27 24 25 24 22 23 24 23 21 21 19
43 45 43 37 36 32 32 30 29 29 29 29 31 31 30 28 25 23 22 24 24 23 20 18 20 17 19 19 22 16 23 29 26 26 25 25 25 25 25 25 21 22 22
46 44 48 43 37 34 33 31 30 29 31 30 30 30 29 28 24 21 22 24 23 19 18 24 21 14 15 18 25 22 24 29 27 29 30 29 25 25 24 24 25 23 23
45 47 46 44 40 34 33 31 32 31 32 32 32 32 27 28 24 21 21 23 22 20 23 22 21 19 19 23 26 24 24 28 31 30 31 29 26 26 28 26 27 26 21
45 48 49 43 39 36 30 32 33 33 32 31 34 32 28 28 25 22 20 23 24 23 28 28 24 28 28 26 24 24 24 27 29 28 31 28 26 27 26 27 27 25 18
47 50 46 41 40 35 33 31 34 34 32 33 35 31 28 28 23 22 21 23 26 25 28 32 33 17 22 22 23 21 21 23 27 26 30 29 27 28 27 27 21 18 16
49 43 39 37 36 37 32 31 36 34 32 33 35 33 29 29 23 22 21 23 26 26 29 28 30 20 21 26 24 24 23 17 22 27 30 30 28 26 19 19 19 17 17
47 39 41 38 35 37 36 34 36 34 33 32 36 33 29 28 23 22 21 24 27 26 27 28 28 32 25 32 28 32 31 27 26 20 28 33 28 24 23 22 21 20 19
41 42 39 39 38 39 37 36 36 36 33 33 37 32 29 26 26 24 25 23 27 29 27 30 31 33 27 36 33 36 33 29 27 26 26 30 30 27 25 24 23 22 20
45 41 37 40 40 37 36 35 38 37 35 33 37 28 29 29 28 25 25 24 26 30 30 30 34 36 33 33 37 35 34 28 26 22 25 30 31 29 27 26 25 24 23
47 42 42 43 42 42 38 38 40 35 36 34 37 31 32 29 27 25 24 25 27 30 32 32 35 35 39 36 36 40 34 31 26 23 26 31 33 31 31 30 27 27 27
46 44 45 46 44 43 38 41 37 37 35 36 37 33 31 31 28 25 24 25 28 30 32 31 32 38 40 41 44 44 39 34 31 26 30 33 34 35 34 31 29 28 28
47 45 43 42 41 39 38 39 37 37 34 37 37 32 30 30 26 25 25 26 28 31 34 32 35 43 37 41 43 46 43 35 33 29 34 34 34 36 35 34 32 31 33
Wind_Direction
327 325 312 312 313 305 302 298 304 311 320 323 328 330 316 306 298 294 285 274 270 270 270 268 248 244 233 222 224 225 228 229 223 219 225 230 232 240 246 245 239 234 236
318 308 309 321 316 309 297 295 302 307 313 316 322 324 325 315 303 298 286 271 263 266 263 257 250 249 249 237 219 210 228 223 228 230 236 239 241 240 245 245 238 236 239
293 291 305 312 312 311 315 311 301 301 303 304 311 317 323 322 312 295 288 280 269 266 263 256 251 247 236 241 234 235 216 217 226 224 227 232 234 238 244 242 236 240 245
289 284 291 302 308 311 305 306 316 308 301 299 303 307 314 317 311 301 294 294 285 267 251 254 244 241 243 246 238 236 227 233 232 227 231 229 226 226 232 234 231 234 238
282 285 297 300 304 306 310 306 314 318 317 309 304 301 304 306 307 303 304 297 285 269 254 256 234 236 235 237 239 235 230 234 237 234 229 231 226 223 226 229 227 229 231
277 282 295 308 298 309 314 313 312 315 317 319 316 306 299 297 301 300 304 297 297 291 270 288 228 228 225 225 237 237 235 233 235 236 225 226 226 226 227 224 224 225 226
283 287 293 314 305 303 305 309 313 316 318 316 315 312 305 299 296 294 300 298 289 279 259 293 268 260 227 220 232 234 237 231 226 240 225 227 224 226 230 232 232 231 227
281 285 288 301 306 304 302 314 318 317 319 320 314 309 304 297 292 291 294 298 296 289 282 284 263 245 248 236 232 232 232 234 224 211 230 228 226 225 226 230 231 234 229
275 280 287 287 303 304 303 309 315 317 323 326 320 316 310 300 292 291 295 300 298 295 284 282 280 254 237 246 242 236 231 233 228 225 229 224 227 225 224 228 227 231 230
268 274 279 282 291 297 296 305 313 313 324 325 319 319 313 298 291 291 294 298 298 297 287 279 269 225 235 241 261 251 240 231 225 224 227 221 224 224 225 225 223 225 228
264 268 274 275 281 290 288 296 307 312 321 323 321 316 315 296 292 291 292 295 300 299 283 273 265 233 240 253 253 251 239 229 224 212 225 224 224 224 226 226 225 228 230
259 264 269 271 273 286 282 290 300 306 312 319 320 318 314 294 292 296 292 298 300 293 279 270 260 246 236 223 235 243 230 226 222 221 226 227 226 226 226 229 231 233 237
262 261 264 267 268 279 276 285 293 301 308 315 317 317 310 293 293 295 289 295 298 289 281 262 264 228 209 221 228 239 230 226 218 227 230 224 225 228 234 235 236 233 236
268 263 264 264 265 271 272 279 287 293 303 310 314 313 303 292 296 293 290 293 298 293 274 260 259 234 224 230 236 236 229 226 222 235 219 223 229 234 234 232 235 243 249
270 271 265 262 262 266 268 271 279 285 296 304 309 309 301 289 296 293 291 297 299 293 273 270 256 243 229 243 239 241 228 226 218 235 232 232 233 239 239 237 239 247 252
268 266 268 265 258 262 264 268 273 280 291 299 304 303 295 286 292 292 293 298 299 284 262 264 239 233 240 233 230 249 235 232 217 233 236 242 239 240 244 248 249 249 259
266 265 266 267 262 260 259 263 270 276 289 295 301 303 285 281 288 284 292 295 292 280 254 268 245 231 228 217 233 250 242 234 229 236 243 244 246 244 242 243 252 263 259
265 264 265 261 263 260 259 261 268 274 285 290 296 297 282 278 287 283 283 289 291 277 261 264 230 233 229 226 236 246 243 236 233 234 243 244 243 249 252 252 249 262 209
262 262 267 274 266 256 257 261 270 272 282 285 292 292 275 274 282 280 275 281 291 285 269 267 268 234 216 227 230 239 240 235 238 233 243 246 246 250 253 252 233 213 219
261 266 267 266 265 265 254 263 264 270 277 281 288 291 270 272 276 274 270 275 282 283 281 269 268 254 218 213 241 237 237 236 248 246 243 247 249 252 230 209 212 216 223
260 264 263 259 254 254 258 265 262 266 273 278 286 287 270 266 270 270 265 271 279 283 277 269 264 264 240 214 238 246 243 246 249 263 247 246 241 230 211 215 220 225 230
260 258 258 257 254 255 258 259 261 267 273 277 285 284 269 260 265 267 262 267 275 278 277 273 268 276 261 225 232 240 245 242 249 266 249 239 230 219 221 220 226 229 236
255 254 250 252 252 253 257 258 262 264 274 276 282 275 261 259 260 262 263 268 275 277 278 279 269 263 265 243 232 239 243 248 255 254 246 234 225 223 221 228 231 234 237
254 252 252 249 252 258 255 256 256 264 271 272 279 275 254 260 258 263 262 269 275 280 280 277 275 257 271 235 234 234 240 241 248 240 230 222 226 225 228 231 235 238 246
252 253 256 256 255 254 255 256 257 263 267 271 277 279 256 258 257 262 260 267 276 285 282 273 276 271 261 236 226 230 238 241 246 251 219 219 225 229 233 236 241 245 250
252 256 254 255 254 252 253 252 253 263 269 269 277 275 255 257 258 263 263 267 273 286 285 281 282 277 246 228 234 231 235 238 240 241 223 227 234 236 236 238 241 245 247
Height
5842 5842 5842 5842 5841 5840 5839 5838 5837 5836 5835 5833 5833 5831 5829 5827 5825 5823 5822 5821 5820 5820 5820 5822 5823 5824 5822 5821 5822 5825 5828 5830 5831 5833 5834 5836 5839 5841 5842 5844 5845 5846 5848
5841 5841 5840 5840 5839 5838 5837 5836 5835 5834 5832 5831 5830 5829 5826 5825 5823 5821 5820 5818 5818 5817 5817 5817 5819 5821 5821 5819 5820 5823 5825 5826 5829 5832 5834 5836 5838 5839 5840 5841 5843 5844 5846
5839 5839 5838 5838 5837 5835 5834 5833 5832 5831 5830 5829 5827 5826 5824 5822 5820 5818 5816 5816 5816 5814 5813 5812 5814 5814 5814 5816 5821 5821 5822 5823 5826 5829 5832 5834 5836 5838 5839 5841 5842 5843 5845
5836 5836 5836 5835 5833 5832 5831 5830 5828 5828 5826 5825 5824 5823 5821 5819 5816 5815 5814 5814 5812 5806 5806 5805 5808 5809 5811 5814 5817 5819 5820 5821 5823 5826 5829 5831 5833 5835 5837 5839 5840 5841 5842
5834 5833 5833 5831 5830 5829 5828 5828 5826 5825 5824 5822 5820 5819 5818 5815 5812 5811 5811 5812 5807 5796 5801 5799 5796 5802 5806 5809 5812 5814 5817 5819 5821 5824 5828 5828 5831 5832 5834 5835 5837 5838 5840
5832 5831 5830 5829 5828 5827 5826 5825 5824 5822 5821 5819 5817 5816 5815 5812 5809 5807 5808 5808 5805 5802 5803 5792 5792 5793 5800 5803 5807 5810 5812 5814 5818 5821 5824 5825 5828 5830 5831 5832 5833 5835 5837
5828 5827 5827 5826 5825 5825 5824 5823 5822 5820 5818 5816 5815 5813 5811 5809 5805 5802 5804 5805 5805 5805 5801 5802 5798 5796 5798 5799 5802 5806 5807 5810 5814 5815 5818 5821 5824 5826 5828 5830 5831 5833 5835
5822 5821 5822 5822 5822 5822 5822 5820 5818 5817 5814 5813 5811 5810 5807 5806 5802 5799 5800 5799 5797 5798 5797 5795 5796 5796 5797 5798 5799 5802 5803 5806 5812 5814 5816 5818 5820 5822 5824 5827 5829 5831 5833
5818 5817 5817 5817 5817 5817 5817 5817 5815 5812 5810 5809 5808 5805 5803 5802 5800 5797 5796 5796 5793 5792 5793 5792 5791 5792 5795 5796 5797 5798 5799 5801 5806 5813 5812 5815 5818 5820 5821 5824 5826 5829 5830
5812 5813 5812 5813 5813 5812 5812 5812 5811 5809 5807 5805 5803 5801 5799 5798 5795 5794 5793 5793 5792 5790 5788 5789 5787 5788 5790 5790 5793 5795 5795 5797 5803 5807 5808 5811 5814 5816 5818 5821 5823 5825 5827
5807 5807 5808 5809 5808 5808 5807 5807 5806 5805 5803 5801 5799 5797 5794 5793 5791 5789 5789 5789 5787 5784 5784 5783 5783 5784 5786 5787 5788 5789 5791 5793 5798 5807 5804 5809 5811 5813 5815 5818 5820 5823 5825
5802 5802 5802 5803 5803 5803 5803 5802 5802 5800 5800 5797 5794 5792 5790 5788 5786 5785 5784 5782 5783 5782 5781 5780 5780 5779 5782 5785 5785 5785 5787 5791 5794 5802 5802 5806 5808 5810 5812 5815 5817 5820 5822
5794 5795 5797 5797 5797 5797 5797 5797 5796 5795 5795 5792 5789 5787 5785 5783 5782 5781 5781 5779 5777 5778 5776 5777 5775 5776 5778 5780 5782 5782 5785 5787 5795 5796 5799 5803 5805 5808 5810 5813 5815 5817 5820
5783 5788 5791 5791 5791 5791 5791 5791 5791 5790 5789 5787 5785 5782 5779 5779 5778 5777 5777 5776 5772 5771 5772 5773 5772 5772 5774 5777 5778 5779 5783 5783 5793 5794 5796 5801 5803 5806 5807 5809 5813 5815 5818
5778 5777 5780 5784 5786 5785 5785 5786 5785 5784 5784 5782 5780 5778 5775 5775 5774 5772 5771 5771 5768 5767 5765 5765 5767 5769 5771 5774 5775 5778 5780 5782 5791 5791 5795 5798 5800 5803 5805 5807 5811 5812 5813
5770 5771 5769 5774 5778 5778 5779 5780 5779 5779 5778 5777 5775 5773 5770 5770 5770 5768 5767 5766 5764 5764 5763 5764 5766 5767 5769 5771 5772 5775 5778 5782 5788 5788 5792 5796 5798 5800 5803 5805 5807 5809 5810
5762 5761 5761 5763 5768 5772 5772 5772 5773 5773 5772 5771 5769 5768 5767 5765 5766 5765 5763 5763 5761 5761 5760 5760 5761 5763 5766 5768 5770 5772 5775 5779 5782 5788 5789 5793 5794 5797 5797 5800 5803 5804 5804
5752 5751 5751 5756 5760 5762 5765 5765 5766 5766 5766 5767 5764 5761 5761 5761 5761 5761 5760 5758 5757 5758 5757 5756 5756 5758 5761 5764 5766 5768 5772 5775 5777 5783 5786 5789 5790 5792 5793 5797 5798 5799 5801
5740 5739 5744 5747 5748 5755 5756 5757 5759 5759 5759 5759 5758 5757 5755 5755 5756 5756 5755 5754 5753 5754 5754 5753 5751 5752 5755 5759 5762 5765 5768 5772 5774 5780 5781 5784 5787 5788 5791 5792 5794 5796 5799
5728 5735 5737 5738 5740 5742 5747 5750 5753 5752 5753 5752 5750 5750 5749 5749 5751 5750 5751 5749 5749 5749 5749 5749 5749 5750 5752 5754 5758 5761 5764 5768 5770 5774 5779 5780 5783 5784 5786 5789 5792 5794 5796
5720 5726 5727 5730 5732 5734 5736 5741 5744 5745 5745 5744 5744 5742 5743 5743 5744 5744 5745 5745 5743 5745 5744 5743 5745 5744 5749 5751 5753 5755 5759 5764 5765 5769 5773 5775 5779 5781 5783 5786 5789 5791 5793
5715 5715 5718 5722 5723 5726 5729 5731 5734 5736 5738 5737 5736 5735 5735 5738 5738 5739 5739 5740 5739 5739 5740 5739 5739 5740 5743 5746 5748 5750 5753 5759 5762 5764 5766 5770 5774 5777 5779 5782 5785 5787 5790
5703 5706 5709 5712 5715 5719 5722 5724 5727 5729 5730 5730 5729 5728 5728 5730 5732 5733 5732 5734 5733 5733 5734 5734 5732 5734 5735 5737 5741 5744 5747 5754 5757 5758 5761 5765 5770 5772 5776 5777 5780 5783 5785
5692 5696 5699 5702 5705 5710 5713 5714 5720 5719 5721 5722 5721 5720 5720 5723 5726 5726 5726 5727 5727 5727 5728 5728 5726 5727 5727 5730 5733 5736 5742 5746 5751 5752 5755 5761 5766 5767 5770 5773 5776 5778 5781
5681 5685 5688 5692 5694 5699 5704 5705 5710 5710 5712 5713 5712 5712 5713 5716 5718 5719 5719 5720 5720 5720 5722 5722 5721 5720 5718 5722 5727 5730 5736 5741 5744 5748 5748 5755 5761 5761 5765 5768 5770 5774 5775
5672 5675 5678 5681 5685 5688 5693 5696 5700 5701 5702 5704 5704 5704 5706 5708 5710 5710 5711 5713 5713 5712 5712 5711 5711 5709 5709 5714 5720 5724 5729 5734 5738 5743 5745 5749 5754 5757 5759 5761 5764 5767 5767